Location: Ku?nica K?cka
(51.4189°N, 17.7036°E)
Time: 06:54:36
(UTC+00:00)

Daily predictions for brighter satellites

Satellite Brightness Start Highest point End
(mag) Time Altitude Azimuth Time Altitude Azimuth Time Altitude Azimuth
Radarsat Rocket 4.4 16:00:31 10° S 16:06:30 71° WSW 16:12:21 10° NNW
Cosmos 1331 Rocket 4.4 16:01:51 10° S 16:06:42 44° ESE 16:11:35 10° NE
NOSS 2-1 (D) 4.2 16:04:02 10° WSW 16:07:11 37° NNW 16:10:47 10° NE
Cosmos 1300 3.5 16:05:10 10° SSE 16:08:32 31° E 16:11:56 10° NNE
IRS-1C Rocket 4.5 16:03:52 10° SE 16:08:47 43° ENE 16:13:46 10° N
SL-4 R/B 1.6 16:06:07 10° W 16:09:36 88° N 16:13:20 10° E
Cosmos 2058 Rocket 4.2 16:06:03 10° SE 16:09:39 24° E 16:13:16 10° NNE
ATLAS 2AS CENTAUR R/B 3.8 16:03:55 10° NW 16:10:59 35° NNE 16:17:37 10° ENE
SeaSat 1 3.8 16:07:35 10° E 16:11:12 21° NE 16:14:49 10° N
USA 215 3.6 16:05:04 10° ENE 16:11:25 55° N 16:17:46 10° WNW
Cosmos 1703 4.0 16:07:37 10° NNW 16:11:31 60° W 16:15:24 10° S
Cosmos 1346 Rocket 4.2 16:09:42 10° NNE 16:12:32 18° ENE 16:15:21 10° ESE
USA 305 3.0 16:08:29 10° WNW 16:12:48 68° N 16:17:05 10° E
H-2A R/B 4.1 16:08:32 10° S 16:12:48 44° W 16:17:08 10° NNW
CZ-2D R/B 4.2 16:11:12 10° SE 16:14:26 27° ENE 16:17:41 10° N
Cosmos 1953 3.5 16:11:19 10° SSW 16:15:09 46° WNW 16:19:00 10° N
NOAA 11 4.2 16:10:01 10° SSE 16:15:24 66° ENE 16:20:48 10° N
Cosmos 1825 4.1 16:14:04 10° NE 16:15:25 12° ENE 16:16:46 10° E
Cosmos 44 3.9 16:11:27 10° S 16:15:33 36° ESE 16:19:56 10° NE
USA 306 3.0 16:14:54 10° WNW 16:19:12 70° NNE 16:23:25 10° E
CSL-04 DEB 4.4 16:16:10 10° NNE 16:20:08 84° WNW 16:24:03 10° SSW
Cosmos 1818 4.3 16:15:19 10° WSW 16:20:39 54° NW 16:26:02 10° NE
Cosmos 968 Rocket 3.9 16:17:03 10° NNW 16:22:01 41° NE 16:26:54 10° SE
ERS-2 2.1 16:20:40 10° NNE 16:24:18 60° ESE 16:27:53 10° S
SAR-Lupe-4 4.2 16:21:03 10° NNE 16:24:21 33° E 16:27:38 10° SSE
Cosmos 2297 Rocket 2.2 16:18:55 10° NNW 16:24:34 63° NE 16:30:11 10° SE
Cosmos 2369 Rocket 3.8 16:19:53 10° WSW 16:24:59 33° NW 16:30:07 10° NNE
Meteor 1-11 4.4 16:19:36 10° NNW 16:25:20 81° W 16:31:07 10° S
Aureole 3 Rocket 3.9 16:22:02 10° SSE 16:25:50 34° E 16:30:54 10° NNE
In-Cosmos 22 Rocket 4.3 16:22:19 10° N 16:27:30 47° ENE 16:32:43 10° SE
Cosmos 1340 3.0 16:24:53 10° N 16:28:31 42° ENE 16:32:07 10° SE
COSMO-SKYMED 1 3.2 16:26:14 10° NNE 16:30:15 35° E 16:34:13 10° SSE
H-2A R/B 2.8 16:28:10 10° N 16:32:15 52° WNW 16:36:16 10° SW
FengYun 1-2 T 4.4 16:27:44 10° SSE 16:33:24 85° WSW 16:39:05 10° NNW
Cosmos 1110 Rocket 4.0 16:30:00 10° SSW 16:35:14 80° ESE 16:40:28 10° NNE
Cosmos 1302 Rocket 4.4 16:32:42 10° S 16:37:38 43° ESE 16:42:39 10° NE
Timation 2 Rocket 4.4 16:33:00 10° NW 16:39:34 76° WSW 16:46:20 10° SSE
Cosmos 1825 Rocket 4.2 16:35:32 10° NNW 16:39:57 62° W 16:44:18 10° S
Lacrosse 5 2.5 16:35:24 10° W 16:40:17 46° N 16:44:18 15° ENE
ADEOS Rocket 3.8 16:36:00 10° N 16:42:12 61° WNW 16:49:02 10° SW
SAR-Lupe-1 4.2 16:38:47 10° NNE 16:42:17 49° E 16:45:47 10° S
Cosmos 1486 Rocket 4.1 16:37:00 10° NNW 16:42:18 58° ENE 16:47:33 10° SE
Cosmos 292 Rocket 3.7 16:39:43 10° SSW 16:44:28 68° ESE 16:49:18 10° NNE
Aureole 3 3.0 16:41:55 10° SSE 16:44:49 39° E 16:47:39 10° NNE
Okean O Rocket 3.2 16:41:48 10° SSW 16:45:55 40° W 16:50:02 10° NNW
FALCON 9 DEB 3.2 16:43:27 10° W 16:46:52 66° N 16:48:52 23° E
YAOGAN 1 2.9 16:43:34 10° SE 16:47:39 42° ENE 16:51:45 10° N
USA 281 4.3 16:42:12 10° S 16:48:29 48° WSW 16:54:50 10° NW
ERBS 3.6 16:46:16 10° WNW 16:49:17 30° N 16:51:09 18° NE
FALCON 9 DEB 3.8 16:46:45 10° SW 16:49:45 35° SSE 16:51:05 24° E
Cosmos 1503 Rocket 4.4 16:47:03 10° NNW 16:52:02 43° ENE 16:56:47 11° SE
CZ-2C R/B 3.4 16:48:23 10° SE 16:53:58 53° ENE 16:59:24 10° N
FALCON 9 DEB 3.6 16:50:58 10° SW 16:53:59 39° SSE 16:55:10 27° ESE
Cosmos 2219 3.3 16:49:03 10° NNW 16:54:51 82° WSW 17:00:37 10° SSE
Cosmos 1455 3.5 16:54:04 10° SE 16:56:10 21° ESE 16:56:10 21° ESE
Cosmos 1726 Rocket 3.6 16:53:54 10° SSW 16:58:16 82° W 17:02:41 10° N
Cosmos 1943 Rocket 4.4 16:55:48 10° WNW 16:59:25 17° NNW 17:03:03 10° N
Cosmos 1553 Rocket 4.0 16:55:01 10° S 17:01:12 58° E 17:07:20 10° NNE
USA 307 2.9 16:57:52 10° WNW 17:02:12 89° S 17:04:41 24° ESE
Cosmos 2082 3.8 16:57:52 10° NNW 17:03:35 60° NE 17:08:49 12° SE
Cosmos 1354 Rocket 4.3 16:58:30 10° NNW 17:03:35 47° ENE 17:07:26 17° SE
Meteor 2-10 Rocket 3.9 16:59:16 10° SSE 17:04:09 40° E 17:08:55 10° NNE
CZ-4B R/B 2.4 17:01:09 10° N 17:04:18 46° WNW 17:07:22 10° SW
Cosmos 2228 3.8 17:01:14 10° SSW 17:05:24 53° WNW 17:09:37 10° N
Cosmos 1939 Rocket 3.2 17:01:42 10° S 17:05:39 67° W 17:09:33 10° NNW
FALCON 9 DEB 3.4 17:02:50 10° SW 17:05:57 45° SSE 17:06:44 36° ESE
USA 308 2.9 17:02:42 10° WNW 17:07:01 86° SSW 17:09:20 27° ESE
ATLAS 5 CENTAUR R/B 3.5 17:06:08 10° WNW 17:09:50 23° NNW 17:13:29 12° NE
Helios 1A Rocket 3.0 17:08:38 10° SSE 17:12:46 80° WSW 17:16:54 10° NNW
Cosmos 1992 Rocket 4.4 17:11:59 10° S 17:16:46 39° ESE 17:19:35 22° NE
ARGOS 3.4 17:13:10 15° SE 17:17:26 46° ENE 17:22:37 10° N
FALCON 9 DEB 3.1 17:14:25 10° SW 17:17:34 55° SSE 17:17:56 50° SE
SKYMED 2 3.6 17:14:06 10° NNE 17:18:29 84° WNW 17:22:49 10° SSW
Okean-O 2.7 17:14:48 10° SSE 17:19:14 81° WSW 17:23:42 10° NNW
Cosmos 1689 Rocket 2.2 17:16:53 10° N 17:19:47 70° WNW 17:22:39 10° SSW
Cosmos 2369 4.3 17:14:46 10° SSE 17:19:48 33° ESE 17:21:09 29° E
Cosmos 2151 4.1 17:16:40 10° N 17:19:28 26° NE 17:19:28 26° NE
Meteor 2-15 4.4 17:16:02 10° S 17:22:05 64° E 17:28:10 10° NNE
SL-08 RB Rocket 4.3 17:22:30 33° ENE 17:22:34 33° ENE 17:26:37 10° N
Cosmos 1656 3.6 17:17:42 10° SSW 17:23:13 68° ESE 17:28:37 11° NE
Cosmos 1745 Rocket 3.9 17:17:48 10° N 17:24:07 79° ENE 17:30:29 10° SSE
Cosmos 1400 Rocket 3.2 17:21:34 10° SSW 17:25:39 68° WNW 17:29:45 10° N
PSLV R/B 4.0 17:22:33 10° NNE 17:26:46 83° WNW 17:30:55 10° SSW
H-2A R/B 2.1 17:21:37 10° SSE 17:27:00 69° ENE 17:32:27 10° N
Ariane Rocket 3.8 17:27:38 31° ENE 17:27:46 31° ENE 17:32:13 10° N
Geosat 4.3 17:26:30 32° ENE 17:28:10 42° ESE 17:32:55 10° S
GEOS 3 Rocket 3.6 17:24:33 21° SE 17:28:11 88° NE 17:33:38 10° NW
Cosmos 2227 Rocket 2.7 17:23:10 10° NW 17:28:45 61° WSW 17:34:17 10° SSE
Cosmos 2058 2.8 17:24:50 10° N 17:28:58 89° E 17:33:03 10° S
CZ-4 R/B 1.6 17:25:44 10° S 17:29:36 66° WSW 17:33:28 10° NNW
Cosmos 1892 3.2 17:26:25 10° NNW 17:30:16 63° W 17:34:07 10° S
Cosmos 220 Rocket 4.1 17:29:18 10° S 17:33:32 52° ESE 17:34:08 48° ENE
Timation 1 Rocket 4.3 17:28:14 10° NNW 17:34:17 69° NE 17:37:24 29° SE
Cosmos 1408 2.5 17:30:51 10° NNW 17:34:30 83° W 17:37:14 17° S
Cosmos 2263 Rocket 2.8 17:29:21 10° NNW 17:34:37 36° NE 17:35:34 34° ENE
CSL-04 Rocket 3.6 17:29:46 10° SSE 17:35:19 80° ENE 17:40:51 10° NNW
BREEZE-M R/B 3.2 17:30:23 10° W 17:36:47 59° SSW 17:37:09 54° SSE
NOSS 3-4 (A) 3.8 17:34:23 10° NW 17:41:06 62° NE 17:44:11 36° ESE
NOSS 3-4 (C) 3.8 17:34:29 10° NW 17:41:11 62° NE 17:44:16 36° ESE
CZ-4C R/B 3.4 17:35:38 10° NW 17:41:48 40° NNE 17:44:24 31° ENE
Meteor 2-1 Rocket 4.0 17:37:00 10° S 17:42:29 72° E 17:48:01 10° NNE
Cosmos 2058 Rocket 4.3 17:43:06 10° SW 17:47:23 44° WNW 17:51:45 10° N
Cosmos 1697 Rocket 2.6 17:42:19 10° S 17:47:48 58° ESE 17:49:37 40° NE
SeaSat 1 2.3 17:46:27 43° SE 17:48:06 79° ENE 17:53:04 10° NNW
SL-4 R/B 1.8 17:45:35 10° W 17:49:04 74° SW 17:49:04 74° SW
Cosmos 1346 Rocket 3.6 17:45:19 10° NNW 17:49:13 52° W 17:53:06 10° S
CRYOSAT 2 4.2 17:45:59 10° N 17:50:53 88° E 17:55:45 10° S
Cosmos 1825 2.1 17:47:42 10° NNW 17:51:31 82° W 17:51:37 81° SW
NOSS 3-3 (A) 4.0 17:47:00 10° SSW 17:52:43 56° SE 17:54:18 45° ENE
USA 305 3.4 17:48:36 10° WNW 17:52:48 53° SSW 17:53:27 48° S
NOSS 3-3 (C) 4.0 17:47:06 10° SSW 17:52:51 56° SE 17:54:24 45° ENE
Cosmos 1709 Rocket 3.9 17:47:31 10° N 17:53:56 77° E 17:59:42 13° SSE
USA 215 3.3 17:51:39 41° E 17:54:05 71° NNE 18:00:36 10° WNW
Cosmos 44 4.1 17:52:15 10° WSW 17:56:42 47° NW 17:59:04 26° NNE
Cosmos 1315 Rocket 2.9 17:52:49 10° SSW 17:56:19 69° SSW 17:56:19 69° SSW
USA 306 3.5 17:55:02 10° WNW 17:59:10 49° SSW 17:59:35 47° SSW
BREEZE-M R/B 4.0 17:58:50 10° W 18:03:10 65° SSW 18:05:18 44° SE
ATLAS 2AS CENTAUR R/B 2.9 17:55:41 10° NW 18:03:20 65° NE 18:05:17 48° E
COSMO-SKYMED 1 4.4 18:02:31 10° N 18:06:22 31° WNW 18:10:12 10° SW
SJ 16-02 3.5 18:03:01 10° N 18:04:08 15° NNE 18:04:08 15° NNE
Cosmos 2074 Rocket 4.5 18:01:24 10° N 18:06:21 40° NE 18:06:21 40° NE
MOS 1 Rocket 3.3 18:02:42 10° NNE 18:07:21 81° WNW 18:12:15 10° SSW
Cosmos 2297 Rocket 4.2 18:03:33 10° NW 18:08:14 27° WSW 18:12:54 10° SSW
Cosmos 1076 Rocket 4.3 18:05:02 10° NNW 18:09:09 50° W 18:11:35 22° SSW
Cosmos 1980 Rocket 3.6 18:05:06 10° S 18:07:19 23° S 18:07:19 23° S
IRS-1A Rocket 4.1 18:10:35 66° ENE 18:10:42 66° ENE 18:16:12 10° NNW
Cosmos 1777 Rocket 4.0 18:05:59 10° NNW 18:10:51 65° NE 18:10:51 65° NE
Meteor 2-17 Rocket 4.4 18:05:15 10° N 18:10:59 57° ENE 18:10:59 57° ENE
COSMOS 2455 4.3 18:06:44 10° NNW 18:11:23 22° NNE 18:12:00 22° NNE
Cosmos 883 Rocket 4.3 18:06:04 10° S 18:12:14 84° E 18:18:24 10° N
Cosmos 2315 Rocket 3.8 18:10:05 10° S 18:16:15 75° E 18:22:28 10° NNE
S3M 4.4 18:10:53 10° SSW 18:16:55 62° WNW 18:23:04 10° N
MOS 1 4.2 18:18:02 68° ENE 18:18:02 68° ENE 18:23:30 10° NNW
Resurs 01 Rocket 4.1 18:24:28 12° N 18:24:28 12° N 18:24:49 10° N
MetOp-A 4.2 18:22:01 63° NNE 18:22:01 63° NNE 18:26:40 10° NNW
Cosmos 2227 4.2 18:16:28 10° NNW 18:21:43 67° NNE 18:21:43 67° NNE
Lacrosse 5 2.3 18:18:58 10° WNW 18:23:30 51° N 18:23:30 51° N
Cosmos 2360 4.1 18:20:57 10° SSW 18:26:15 76° S 18:26:15 76° S
Cosmos 1455 4.2 18:29:09 10° SW 18:31:13 25° WSW 18:31:13 25° WSW
Meteor 2-3 Rocket 3.8 18:29:37 10° NNW 18:34:44 71° N 18:34:44 71° N
Cosmos 2278 Rocket 4.4 18:51:31 10° N 18:53:39 14° NNE 18:53:39 14° NNE
ATLAS 5 CENTAUR R/B 3.8 18:52:02 10° NW 18:55:01 22° N 18:55:01 22° N
Cosmos 2369 4.4 18:58:11 10° SW 19:03:11 51° WNW 19:03:11 51° WNW
Ariane Rocket 4.2 19:07:51 39° WNW 19:07:51 39° WNW 19:11:30 10° NNW
H-2A R/B 4.3 19:02:44 10° SW 19:06:55 22° W 19:11:10 10° NW
Cosmos 1844 Rocket 4.3 19:02:33 10° NNW 19:05:18 26° N 19:05:18 26° N
Cosmos 2263 Rocket 3.3 19:13:15 10° NW 19:17:16 41° WNW 19:17:16 41° WNW
CZ-4C R/B 3.2 19:24:08 10° NW 19:29:36 61° NW 19:29:36 61° NW
Cosmos 1697 Rocket 4.2 19:27:02 10° WSW 19:31:25 32° WNW 19:31:25 32° WNW
USA 215 4.1 19:39:00 45° W 19:39:00 45° W 19:43:43 10° WNW
ATLAS 2AS CENTAUR R/B 3.9 19:47:09 10° NW 19:52:43 38° W 19:52:43 38° W
